#timestamp,LO_Frequency,Hit,StdDev 
1582632015.4,286047000.3,N
1582632035.2,286047001.4,N
1582632055.1,286047002.3,N
1582632056.0,286047002.3,N
1582632075.8,286046999.9,N
1582632095.6,286047002.3,N
1582632115.5,286047002.2,N
1582632135.3,286047000.0,N
1582632155.2,286046999.8,N
1582632175.9,286046999.8,N
1582632195.7,286047001.1,N
1582632215.6,286047000.5,N
1582632235.4,286047000.4,N
1582632255.2,286047000.9,N
1582632275.1,286046999.6,N
1582632276.0,286046999.6,N
1582632295.8,286047000.6,N
1582632315.7,286047002.7,N
1582632335.5,286047004.1,Y
1582632355.3,286047000.4,P
1582632375.2,286047000.1,N
1582632395.0,286046998.4,P
1582632395.9,286046998.4,N
1582632415.8,286046999.3,N
1582632435.6,286046997.5,N
1582632455.4,286046996.5,N
1582632475.3,286046996.6,N
1582632495.1,286046999.6,N
1582632515.8,286046999.3,N
1582632535.7,286046998.3,N
1582632555.5,286046997.3,N
1582632575.4,286046997.7,N
1582632595.2,286046995.0,Y
1582632615.0,286046997.0,P
1582632615.9,286046997.0,P
1582632635.8,286046996.5,P
1582632655.6,286046998.4,N
1582632675.5,286046999.0,N
1582632695.3,286046999.2,N
1582632715.1,286046996.7,Y
1582632735.9,286046998.1,P
1582632755.7,286047000.9,P
1582632775.5,286047002.4,N
1582632795.4,286047002.5,N
1582632815.2,286047004.3,N
1582632835.1,286047004.7,N
1582632836.0,286047004.7,N
1582632855.8,286047008.1,Y
1582632875.6,286047006.3,P
1582632895.5,286047006.9,P
1582632915.3,286047006.2,N
1582632935.2,286047003.3,N
1582632955.9,286047003.7,N
1582632975.7,286047002.0,N
1582632995.6,286047000.9,N
1582633015.4,286046999.0,N
1582633035.2,286046997.0,N
1582633055.1,286046998.8,N
1582633056.0,286046998.8,N
1582633075.8,286047003.9,N
1582633095.7,286047005.5,N
1582633115.5,286047006.7,N
1582633135.3,286047007.7,N
1582633155.2,286047008.2,N
1582633175.0,286047009.5,N
1582633175.9,286047009.5,N
1582633195.8,286047013.6,Y
1582633215.6,286047007.5,P
1582633235.4,286047001.3,N
1582633255.3,286046999.8,N
1582633275.1,286046999.3,N
1582633295.8,286046997.3,N
1582633315.7,286046998.7,N
1582633335.5,286047000.0,N
1582633355.4,286047002.1,N
1582633375.2,286047000.2,N
1582633395.0,286047001.2,N
1582633395.9,286047001.2,N
1582633415.8,286047002.7,N
1582633435.6,286046998.5,N
1582633455.5,286046998.7,N
1582633475.3,286046999.0,N
1582633495.1,286046998.6,N
1582633515.9,286046996.6,N
1582633535.7,286046997.1,N
1582633555.5,286046997.5,N
1582633575.4,286046997.4,N
1582633595.2,286046998.0,N
1582633615.1,286046995.1,N
1582633616.0,286046995.1,N
1582633635.8,286046999.2,N
1582633655.6,286046997.0,N
1582633675.5,286046998.6,N
1582633695.3,286047002.1,N
1582633715.1,286047002.8,N
1582633735.9,286047000.5,N
1582633755.7,286046996.7,N
1582633775.6,286046997.4,N
1582633795.4,286046995.0,N
1582633815.2,286046993.6,N
1582633835.1,286046996.1,N
1582633836.0,286046996.1,N
1582633855.8,286046996.3,N
1582633875.7,286046995.9,N
1582633895.5,286046996.2,N
1582633915.3,286046995.1,N
1582633935.2,286046999.1,N
1582633955.0,286046998.9,N
1582633955.9,286046998.9,N
1582633975.7,286046998.5,N
1582633995.6,286046998.6,N
1582634015.4,286046996.5,N
1582634035.3,286046998.0,N
1582634055.1,286046995.1,N
1582634056.0,286046995.1,N
1582634075.8,286046993.4,Y
1582634095.7,286046995.0,P
1582634115.5,286046998.0,N
1582634135.4,286046997.5,N
1582634155.2,286046997.5,N
1582634175.0,286046995.3,Y
1582634175.9,286046995.3,P
1582634195.8,286047000.8,N
1582634215.6,286047000.5,N
1582634235.5,286047001.0,N
1582634255.3,286047001.0,N
1582634275.1,286047000.8,N
1582634295.9,286046999.4,N
1582634315.7,286046999.4,N
1582634335.5,286046997.1,N
1582634355.4,286046998.9,N
1582634375.2,286046996.5,N
1582634395.1,286046997.0,N
1582634396.0,286046997.0,N
1582634415.8,286046998.2,N
1582634435.6,286047001.2,N
1582634455.5,286046997.0,N
1582634475.3,286046999.3,N
1582634495.1,286046999.4,N
1582634515.9,286046999.8,N
1582634535.7,286047002.3,N
1582634555.6,286047000.6,N
1582634575.4,286047000.8,N
1582634595.2,286046998.5,N
1582634615.1,286046997.2,N
1582634616.0,286046997.2,N
1582634635.8,286046997.4,N
1582634655.6,286046995.8,N
1582634675.5,286046995.0,N
1582634695.3,286046997.9,N
1582634715.2,286046993.8,Y
1582634735.9,286046995.2,P
1582634755.7,286046997.7,N
1582634775.6,286046996.6,N
1582634795.4,286046999.2,N
1582634815.3,286046997.0,N
1582634835.1,286046999.0,N
1582634836.0,286046999.0,N
1582634855.8,286046998.3,N
1582634875.7,286046998.8,N
1582634895.5,286046999.4,N
1582634915.3,286046999.3,N
1582634935.2,286046996.8,N
1582634955.0,286046996.7,N
1582634955.9,286046996.7,N
1582634975.8,286046999.4,N
1582634995.6,286046998.4,N
1582635015.4,286046998.7,N
1582635035.3,286046998.4,N
1582635055.1,286046998.9,N
1582635075.8,286046998.9,N
1582635095.7,286046998.6,N
1582635115.5,286047001.2,N
1582635135.4,286046998.9,N
1582635155.2,286047001.0,N
1582635175.0,286046998.7,N
1582635175.9,286046998.7,N
1582635195.8,286046999.3,N
1582635215.6,286046998.7,N
1582635235.5,286046998.1,N
1582635255.3,286047000.6,N
1582635275.1,286047011.9,Y
1582635295.9,286047002.0,P
1582635315.7,286046999.8,N
1582635335.6,286047002.8,N
1582635355.4,286047004.1,N
1582635375.2,286047003.3,N
1582635395.1,286047005.4,N
1582635396.0,286047005.4,N
1582635415.8,286047005.9,N
1582635435.6,286047003.8,N
1582635455.5,286047001.8,N
1582635475.3,286047004.4,N
1582635495.2,286047004.1,N
1582635515.9,286047001.4,N
1582635535.7,286047001.7,N
1582635555.6,286047003.6,N
1582635575.4,286047001.5,N
1582635595.2,286047001.5,N
